When you browse on this site, cookies collect data to enhance your experience and personalize the content and advertising you see.
Visit our Privacy Policy to learn more. By continuing to use the site, you agree to this use of cookies and data.
EN

Hourly Weather Kolodezskiy

Today, 7 August, Friday

Time Temperature Precipitation Wind Pressure Humidity
00:00 +20°C° 0 mm 2 mps 747 mmHg 77%
01:00 +19°C° 0 mm 2 mps 747 mmHg 80%
02:00 +19°C° 0 mm 2 mps 747 mmHg 84%
03:00 +19°C° 0 mm 3 mps 747 mmHg 87%
04:00 +18°C° 0 mm 3 mps 747 mmHg 91%
05:00 +18°C° 0 mm 3 mps 747 mmHg 94%
06:00 +19°C° 0 mm 4 mps 747 mmHg 88%
07:00 +21°C° 0 mm 4 mps 747 mmHg 82%
08:00 +22°C° 0 mm 4 mps 748 mmHg 76%
09:00 +23°C° 0 mm 5 mps 748 mmHg 71%
10:00 +25°C° 0 mm 5 mps 748 mmHg 66%
11:00 +25°C° 0 mm 5 mps 747 mmHg 61%
12:00 +26°C° 0 mm 5 mps 747 mmHg 59%
13:00 +26°C° 0 mm 5 mps 747 mmHg 58%
14:00 +26°C° 0 mm 5 mps 747 mmHg 56%
15:00 +25°C° 0 mm 5 mps 747 mmHg 58%
16:00 +25°C° 0 mm 5 mps 747 mmHg 60%
17:00 +23°C° 0 mm 5 mps 747 mmHg 63%
18:00 +22°C° 0 mm 4 mps 747 mmHg 67%
19:00 +20°C° 0 mm 4 mps 747 mmHg 71%
20:00 +19°C° 0 mm 3 mps 747 mmHg 75%
21:00 +18°C° 0 mm 3 mps 747 mmHg 76%
22:00 +18°C° 0 mm 3 mps 747 mmHg 77%
23:00 +17°C° 0 mm 3 mps 747 mmHg 78%

Tomorrow, 8 August, Saturday

Time Temperature Precipitation Wind Pressure Humidity
00:00 +17°C° 0 mm 3 mps 747 mmHg 80%
01:00 +16°C° 0 mm 3 mps 747 mmHg 81%
02:00 +16°C° 0 mm 3 mps 747 mmHg 82%
03:00 +16°C° 0 mm 3 mps 746 mmHg 83%
04:00 +14°C° 0 mm 3 mps 746 mmHg 84%
05:00 +14°C° 0 mm 3 mps 746 mmHg 85%
06:00 +17°C° 0 mm 3 mps 747 mmHg 79%
07:00 +19°C° 0 mm 4 mps 747 mmHg 73%
08:00 +20°C° 0 mm 4 mps 747 mmHg 67%
09:00 +21°C° 0 mm 4 mps 747 mmHg 63%
10:00 +23°C° 0 mm 4 mps 746 mmHg 59%
11:00 +25°C° 0 mm 4 mps 746 mmHg 54%
12:00 +25°C° 0 mm 4 mps 746 mmHg 53%
13:00 +25°C° 0 mm 4 mps 745 mmHg 52%
14:00 +26°C° 0 mm 4 mps 745 mmHg 51%
15:00 +25°C° 0 mm 4 mps 745 mmHg 54%
16:00 +25°C° 0 mm 4 mps 744 mmHg 57%
17:00 +25°C° 0 mm 3 mps 744 mmHg 60%
18:00 +22°C° 0 mm 3 mps 744 mmHg 65%
19:00 +21°C° 0 mm 3 mps 744 mmHg 70%
20:00 +19°C° 0 mm 2 mps 744 mmHg 76%
21:00 +19°C° 0 mm 2 mps 744 mmHg 77%
22:00 +18°C° 0 mm 2 mps 743 mmHg 79%
23:00 +18°C° 0 mm 2 mps 743 mmHg 81%

Day after tomorrow, 9 August, Sunday

Time Temperature Precipitation Wind Pressure Humidity
00:00 +17°C° 0 mm 2 mps 743 mmHg 84%
01:00 +17°C° 0 mm 2 mps 743 mmHg 87%
02:00 +16°C° 0 mm 2 mps 743 mmHg 90%
03:00 +16°C° 0 mm 2 mps 743 mmHg 91%
04:00 +16°C° 0 mm 2 mps 742 mmHg 92%
05:00 +16°C° 0 mm 3 mps 742 mmHg 93%
06:00 +18°C° 0 mm 3 mps 742 mmHg 86%
07:00 +19°C° 0 mm 3 mps 742 mmHg 80%
08:00 +21°C° 0 mm 3 mps 742 mmHg 73%
09:00 +22°C° 0 mm 4 mps 742 mmHg 67%
10:00 +23°C° 0 mm 4 mps 742 mmHg 62%
11:00 +25°C° 0 mm 4 mps 742 mmHg 56%
12:00 +25°C° 0 mm 4 mps 742 mmHg 55%
13:00 +26°C° 0 mm 4 mps 742 mmHg 54%
14:00 +26°C° 0 mm 4 mps 742 mmHg 52%
15:00 +26°C° 0 mm 4 mps 742 mmHg 54%
16:00 +25°C° 0 mm 3 mps 741 mmHg 56%
17:00 +25°C° 0 mm 3 mps 741 mmHg 58%
18:00 +22°C° 0 mm 3 mps 741 mmHg 62%
19:00 +21°C° 0 mm 2 mps 741 mmHg 67%
20:00 +19°C° 0 mm 2 mps 741 mmHg 72%
21:00 +19°C° 0 mm 2 mps 741 mmHg 73%
22:00 +18°C° 0 mm 2 mps 741 mmHg 73%
23:00 +19°C° 0 mm 1 mps 741 mmHg 74%

10 August, Monday

Time Temperature Precipitation Wind Pressure Humidity
00:00 +17°C° 0 mm 2 mps 741 mmHg 77%
01:00 +17°C° 0 mm 2 mps 741 mmHg 79%
02:00 +17°C° 0 mm 2 mps 741 mmHg 82%
03:00 +16°C° 0 mm 2 mps 741 mmHg 85%
04:00 +16°C° 0 mm 2 mps 741 mmHg 88%
05:00 +16°C° 0 mm 2 mps 741 mmHg 91%
06:00 +18°C° 0 mm 2 mps 741 mmHg 85%
07:00 +19°C° 0 mm 3 mps 741 mmHg 79%
08:00 +21°C° 0 mm 3 mps 741 mmHg 73%
09:00 +22°C° 0 mm 3 mps 741 mmHg 67%
10:00 +23°C° 0 mm 4 mps 741 mmHg 61%
11:00 +25°C° 0 mm 4 mps 742 mmHg 55%
12:00 +25°C° 0 mm 4 mps 741 mmHg 54%
13:00 +25°C° 0 mm 4 mps 741 mmHg 53%
14:00 +25°C° 0 mm 4 mps 741 mmHg 51%
15:00 +23°C° 0 mm 4 mps 741 mmHg 53%
16:00 +23°C° 0 mm 4 mps 741 mmHg 55%
17:00 +22°C° 0 mm 4 mps 741 mmHg 57%
18:00 +21°C° 0 mm 3 mps 741 mmHg 61%
19:00 +19°C° 0 mm 3 mps 741 mmHg 66%
20:00 +18°C° 0 mm 2 mps 741 mmHg 70%
21:00 +17°C° 0 mm 2 mps 741 mmHg 72%
22:00 +18°C° 0 mm 1 mps 741 mmHg 73%
23:00 +16°C° 0 mm 1 mps 741 mmHg 75%

11 August, Tuesday

Time Temperature Precipitation Wind Pressure Humidity
00:00 +16°C° 0 mm 1 mps 741 mmHg 75%
01:00 +16°C° 0 mm 1 mps 741 mmHg 76%
02:00 +15°C° 0 mm 1 mps 741 mmHg 76%
03:00 +15°C° 0 mm 1 mps 741 mmHg 77%
04:00 +15°C° 0 mm 1 mps 741 mmHg 78%
05:00 +15°C° 0 mm 2 mps 741 mmHg 79%
06:00 +17°C° 0 mm 2 mps 741 mmHg 73%
07:00 +19°C° 0 mm 2 mps 740 mmHg 68%
08:00 +21°C° 0 mm 2 mps 740 mmHg 62%
09:00 +22°C° 0 mm 3 mps 740 mmHg 61%
10:00 +24°C° 0 mm 3 mps 740 mmHg 59%
11:00 +25°C° 0 mm 3 mps 740 mmHg 58%
12:00 +25°C° 0.6 mm 4 mps 740 mmHg 58%
13:00 +25°C° 0.6 mm 4 mps 739 mmHg 58%
14:00 +26°C° 0.6 mm 4 mps 739 mmHg 58%
15:00 +25°C° 0.6 mm 4 mps 739 mmHg 62%
16:00 +25°C° 0.6 mm 3 mps 739 mmHg 66%
17:00 +24°C° 0.6 mm 3 mps 738 mmHg 71%
18:00 +23°C° 0.8 mm 2 mps 738 mmHg 75%
19:00 +20°C° 0.8 mm 2 mps 738 mmHg 79%
20:00 +19°C° 0.8 mm 2 mps 738 mmHg 84%
21:00 +18°C° 0 mm 2 mps 738 mmHg 86%
22:00 +18°C° 0 mm 2 mps 738 mmHg 88%
23:00 +17°C° 0 mm 2 mps 738 mmHg 91%

12 August, Wednesday

Time Temperature Precipitation Wind Pressure Humidity
00:00 +16°C° 0 mm 3 mps 737 mmHg 91%
01:00 +14°C° 0 mm 3 mps 737 mmHg 92%
02:00 +14°C° 0 mm 3 mps 737 mmHg 93%
03:00 +13°C° 0 mm 3 mps 737 mmHg 91%
04:00 +13°C° 0 mm 3 mps 737 mmHg 90%
05:00 +13°C° 0 mm 3 mps 737 mmHg 89%
06:00 +14°C° 0 mm 3 mps 737 mmHg 85%
07:00 +15°C° 0 mm 4 mps 737 mmHg 81%
08:00 +15°C° 0 mm 4 mps 737 mmHg 77%
09:00 +18°C° 0 mm 4 mps 737 mmHg 70%
10:00 +19°C° 0 mm 4 mps 737 mmHg 63%
11:00 +20°C° 0 mm 4 mps 737 mmHg 56%
12:00 +20°C° 0.1 mm 4 mps 737 mmHg 57%
13:00 +20°C° 0.1 mm 5 mps 737 mmHg 58%
14:00 +20°C° 0.1 mm 5 mps 737 mmHg 58%
15:00 +20°C° 0.2 mm 5 mps 737 mmHg 62%
16:00 +19°C° 0.2 mm 5 mps 737 mmHg 66%
17:00 +19°C° 0.2 mm 6 mps 737 mmHg 70%
18:00 +17°C° 0.1 mm 6 mps 737 mmHg 76%
19:00 +15°C° 0.1 mm 6 mps 737 mmHg 82%
20:00 +14°C° 0.1 mm 6 mps 738 mmHg 87%
21:00 +14°C° 0 mm 6 mps 738 mmHg 86%
22:00 +13°C° 0 mm 6 mps 738 mmHg 86%
23:00 +13°C° 0 mm 6 mps 738 mmHg 85%
Show more